Abhaipura, India

7:50 PM IST on April 29, 2017 (GMT +0530)
Abhaipura

Weather History for 42348 - September, 2013

Change the Weather History Date:

Saturday, September 28, 2013

  Actual Average Record
Temperature  
Mean Temperature 82 °F -  
Max Temperature 88 °F - - ()
Min Temperature 76 °F - - ()
Cooling Degree Days 17    
Growing Degree Days 32 (Base 50)    
Moisture  
Dew Point 70 °F    
Average Humidity 67    
Maximum Humidity 89    
Minimum Humidity 45    
Precipitation  
Precipitation 0.00 in - - ()
Sea Level Pressure  
Sea Level Pressure 29.75 in    
Wind  
Wind Speed 3 mph ()    
Max Wind Speed 9 mph    
Max Gust Speed -    
Visibility 2.2 miles    
Events      
T = Trace of Precipitation, MM = Missing Value Source: Averaged Metar Reports

Daily Weather History Graph

Daily Weather History Graph

Search for Another Location

Airport or City:

Trip Planner

Search our weather history database for the weather conditions in past years. The results will help you decide how hot, cold, wet, or windy it might be!

Date:

Astronomy

Sep. 28, 2013 Rise Set
Actual Time 6:17 AM IST 6:16 PM IST
Civil Twilight 5:54 AM IST 6:39 PM IST
Nautical Twilight 5:27 AM IST 7:06 PM IST
Astronomical Twilight 5:00 AM IST 7:33 PM IST
Moon No Moon Rise 1:49 PM IST (9/28)
Length of Visible Light 12h 45m
Length of Day
11h 58m
Last Quarter, 40% of the Moon is Illuminated
Sep 28
Last Quarter
Oct 5
New
Oct 12
First Quarter
Oct 19
Full
Oct 27
Last Quarter

Hourly Weather History & Observations

Time (IST) Temp. Heat Index Dew Point Humidity Pressure Visibility Wind Dir Wind Speed Gust Speed Precip Events Conditions
12:00 AM 80.6 °F 83.9 °F 69.8 °F 70% 29.80 in 1.9 mi WSW 6.9 mph - N/A   Haze
1:00 AM 78.8 °F - 69.8 °F 74% 29.80 in 1.9 mi Variable 2.3 mph - N/A   Haze
2:00 AM 78.8 °F - 69.8 °F 74% 29.77 in 1.9 mi Variable 2.3 mph - N/A   Haze
2:30 AM 77 °F - 70 °F 74% 29.71 in 1 mi Calm Calm - -   Haze
3:00 AM 77.0 °F - 69.8 °F 78% 29.77 in 1.9 mi Variable 2.3 mph - N/A   Haze
4:00 AM 77.0 °F - 71.6 °F 83% 29.77 in 1.9 mi WSW 5.8 mph - N/A   Haze
5:00 AM 75.2 °F - 71.6 °F 89% 29.77 in 1.9 mi West 4.6 mph - N/A   Haze
5:30 AM 76 °F - 71 °F 78% 29.71 in 1 mi West 2.3 mph - -   Haze
6:00 AM 75.2 °F - 71.6 °F 89% 29.77 in 1.9 mi Variable 1.2 mph - N/A   Haze
8:00 AM 78.8 °F - 71.6 °F 78% 29.83 in 2.5 mi WSW 5.8 mph - N/A   Haze
8:30 AM 80 °F - 72 °F 69% 29.76 in 2 mi WSW 9.2 mph - -   Haze
9:00 AM 80.6 °F 84.6 °F 71.6 °F 74% 29.86 in 2.5 mi SW 6.9 mph - N/A   Haze
10:00 AM 84.2 °F 89.6 °F 71.6 °F 66% 29.86 in 2.5 mi SW 5.8 mph - N/A   Haze
11:30 AM 88 °F - 69 °F 45% 29.73 in 2 mi SW 3.5 mph - -   Haze
12:00 PM 86.0 °F 89.4 °F 68.0 °F 55% 29.80 in 3.1 mi SW 4.6 mph - N/A   Haze
1:00 PM 86.0 °F 90.4 °F 69.8 °F 58% 29.80 in 3.1 mi SSW 6.9 mph - N/A   Haze
2:00 PM 86.0 °F 90.4 °F 69.8 °F 58% 29.77 in 3.1 mi SSW 4.6 mph - N/A   Haze
2:30 PM 85 °F - 68 °F 48% 29.68 in 2 mi SSW 4.6 mph - -   Haze
2:30 PM 86.0 °F 90.4 °F 69.8 °F 58% 29.74 in 3.1 mi SSW 4.6 mph - N/A   Haze
3:00 PM 84.2 °F 87.3 °F 68.0 °F 58% 29.74 in 3.1 mi Variable 2.3 mph - N/A   Haze
3:30 PM 84.2 °F 87.3 °F 68.0 °F 58% 29.74 in 3.1 mi Variable 3.5 mph - N/A   Haze
4:00 PM 84.2 °F 86.6 °F 66.2 °F 55% 29.74 in 3.1 mi Variable 2.3 mph - N/A   Haze
4:30 PM 84.2 °F 86.6 °F 66.2 °F 55% 29.71 in 3.1 mi Calm Calm - N/A   Haze
5:00 PM 84.2 °F 87.3 °F 68.0 °F 58% 29.71 in 3.1 mi Calm Calm - N/A   Haze
5:30 PM 84.2 °F 87.3 °F 68.0 °F 58% 29.71 in 3.1 mi WSW 4.6 mph - N/A   Haze
6:00 PM 82.4 °F 85.4 °F 68.0 °F 62% 29.71 in 2.5 mi West 3.5 mph - N/A   Haze
6:30 PM 82.4 °F 86.3 °F 69.8 °F 66% 29.71 in 2.2 mi Calm Calm - N/A   Haze
8:00 PM 80.6 °F 84.6 °F 71.6 °F 74% 29.74 in 1.9 mi Calm Calm - N/A   Haze
8:30 PM 80 °F - 73 °F 74% 29.68 in 1 mi Calm Calm - -   Haze
9:00 PM 80.6 °F 84.6 °F 71.6 °F 74% 29.77 in 1.9 mi Calm Calm - N/A   Haze
10:00 PM 80.6 °F 83.9 °F 69.8 °F 70% 29.74 in 1.9 mi East 4.6 mph - N/A   Haze
11:00 PM 78.8 °F - 69.8 °F 74% 29.74 in 1.9 mi Variable 1.2 mph - N/A   Haze
11:30 PM 80 °F - 70 °F 63% 29.69 in 1 mi Calm Calm - -   Haze